Time,TemperatureF,DewpointF,PressureIn,WindDirection,WindDirectionDegrees,WindSpeedMPH,WindSpeedGustMPH,Humidity,HourlyPrecipIn,Conditions,Clouds,dailyrainin,SolarRadiationWatts/m^2,SoftwareType,DateUTC
2013-06-05 00:01:00,48.2,44.2,30.08,NNW,344,2.0,3.0,86,0.00,,,0.00,0.00,VWS V14.00,2013-06-05 04:01:00,
2013-06-05 00:02:00,48.2,44.2,30.08,NNW,344,2.0,3.0,86,0.00,,,0.00,0.00,VWS V14.00,2013-06-05 04:02:00,
2013-06-05 00:07:00,48.2,44.2,30.08,NNW,344,0.0,3.0,86,0.00,,,0.00,0.00,VWS V14.00,2013-06-05 04:07:00,
2013-06-05 00:12:00,48.2,44.2,30.08,NNW,344,0.0,3.0,86,0.00,,,0.00,0.00,VWS V14.00,2013-06-05 04:12:00,
2013-06-05 00:17:00,48.2,45.4,30.08,NNW,344,0.0,1.0,90,0.00,,,0.00,0.00,VWS V14.00,2013-06-05 04:17:00,
2013-06-05 00:22:00,48.2,44.2,30.08,NNW,344,2.0,3.0,86,0.00,,,0.00,0.00,VWS V14.00,2013-06-05 04:22:00,
2013-06-05 00:27:00,48.1,44.1,30.08,NNW,344,3.0,3.0,86,0.00,,,0.00,0.00,VWS V14.00,2013-06-05 04:27:00,
2013-06-05 00:32:00,48.1,44.1,30.08,NNW,344,0.0,2.0,86,0.00,,,0.00,0.00,VWS V14.00,2013-06-05 04:32:00,
2013-06-05 00:37:00,48.1,44.1,30.08,NNW,344,1.0,3.0,86,0.00,,,0.00,0.00,VWS V14.00,2013-06-05 04:37:00,
2013-06-05 00:42:00,48.1,44.1,30.08,NNW,344,0.0,0.0,86,0.00,,,0.00,0.00,VWS V14.00,2013-06-05 04:42:00,
2013-06-05 00:47:00,48.1,44.1,30.08,NNW,344,0.0,3.0,86,0.00,,,0.00,0.00,VWS V14.00,2013-06-05 04:47:00,
2013-06-05 00:52:00,48.1,44.1,30.08,NNW,344,1.0,4.0,86,0.00,,,0.00,0.00,VWS V14.00,2013-06-05 04:52:00,
2013-06-05 00:57:00,48.1,44.1,30.08,NNW,344,0.0,0.0,86,0.00,,,0.00,0.00,VWS V14.00,2013-06-05 04:57:00,
2013-06-05 01:02:00,48.1,44.1,30.08,NNW,344,3.0,4.0,86,0.00,,,0.00,0.00,VWS V14.00,2013-06-05 05:02:00,
2013-06-05 01:07:00,48.1,44.1,30.08,NNW,344,0.0,0.0,86,0.00,,,0.00,0.00,VWS V14.00,2013-06-05 05:07:00,
2013-06-05 01:12:00,48.1,44.1,30.08,NNW,344,0.0,3.0,86,0.00,,,0.00,0.00,VWS V14.00,2013-06-05 05:12:00,
2013-06-05 01:17:00,48.0,44.0,30.08,NNW,344,0.0,1.0,86,0.00,,,0.00,0.00,VWS V14.00,2013-06-05 05:17:00,
2013-06-05 01:22:00,47.9,43.9,30.08,NNW,344,0.0,2.0,86,0.00,,,0.00,0.00,VWS V14.00,2013-06-05 05:22:00,
2013-06-05 01:27:00,47.8,43.8,30.08,NNW,344,0.0,4.0,86,0.00,,,0.00,0.00,VWS V14.00,2013-06-05 05:27:00,
2013-06-05 01:32:00,47.7,43.7,30.08,NNW,344,0.0,1.0,86,0.00,,,0.00,0.00,VWS V14.00,2013-06-05 05:32:00,
2013-06-05 01:37:00,47.6,43.6,30.08,NNW,344,2.0,3.0,86,0.00,,,0.00,0.00,VWS V14.00,2013-06-05 05:37:00,
2013-06-05 01:42:00,47.4,43.4,30.08,NNW,344,0.0,1.0,86,0.00,,,0.00,0.00,VWS V14.00,2013-06-05 05:42:00,
2013-06-05 01:47:00,47.3,43.3,30.08,NNW,344,0.0,0.0,86,0.00,,,0.00,0.00,VWS V14.00,2013-06-05 05:47:00,
2013-06-05 01:52:00,47.2,43.5,30.08,NNW,344,0.0,2.0,87,0.00,,,0.00,0.00,VWS V14.00,2013-06-05 05:52:00,
2013-06-05 01:57:00,47.0,43.3,30.08,NNW,344,0.0,0.0,87,0.00,,,0.00,0.00,VWS V14.00,2013-06-05 05:57:00,
2013-06-05 02:03:00,46.9,43.2,30.08,NNW,344,0.0,1.0,87,0.00,,,0.00,0.00,VWS V14.00,2013-06-05 06:03:00,
2013-06-05 02:08:00,46.9,43.2,30.08,NNW,344,0.0,2.0,87,0.00,,,0.00,0.00,VWS V14.00,2013-06-05 06:08:00,
2013-06-05 02:13:00,46.8,43.1,30.08,NNW,344,0.0,1.0,87,0.00,,,0.00,0.00,VWS V14.00,2013-06-05 06:13:00,
2013-06-05 02:18:00,46.7,43.0,30.08,NNW,344,0.0,2.0,87,0.00,,,0.00,0.00,VWS V14.00,2013-06-05 06:18:00,
2013-06-05 02:23:00,46.6,42.9,30.08,NNW,344,0.0,0.0,87,0.00,,,0.00,0.00,VWS V14.00,2013-06-05 06:23:00,
2013-06-05 02:28:00,46.5,42.8,30.08,NNW,344,0.0,1.0,87,0.00,,,0.00,0.00,VWS V14.00,2013-06-05 06:28:00,
2013-06-05 02:33:00,46.4,42.8,30.08,NNW,344,0.0,2.0,87,0.00,,,0.00,0.00,VWS V14.00,2013-06-05 06:33:00,
2013-06-05 02:38:00,46.3,42.7,30.08,NNW,344,0.0,1.0,87,0.00,,,0.00,0.00,VWS V14.00,2013-06-05 06:38:00,
2013-06-05 02:43:00,46.1,42.5,30.08,NNW,344,0.0,3.0,87,0.00,,,0.00,0.00,VWS V14.00,2013-06-05 06:43:00,
2013-06-05 02:48:00,46.0,42.7,30.09,NNW,344,0.0,3.0,88,0.00,,,0.00,0.00,VWS V14.00,2013-06-05 06:48:00,
2013-06-05 02:53:00,45.9,42.5,30.09,NNW,344,0.0,1.0,88,0.00,,,0.00,0.00,VWS V14.00,2013-06-05 06:53:00,
2013-06-05 02:58:00,45.9,42.5,30.09,NNW,344,0.0,2.0,88,0.00,,,0.00,0.00,VWS V14.00,2013-06-05 06:58:00,
2013-06-05 03:03:00,45.9,42.5,30.09,NNW,344,2.0,2.0,88,0.00,,,0.00,0.00,VWS V14.00,2013-06-05 07:03:00,
2013-06-05 03:08:00,46.0,42.7,30.09,NNW,344,0.0,1.0,88,0.00,,,0.00,0.00,VWS V14.00,2013-06-05 07:08:00,
2013-06-05 03:13:00,46.0,43.0,30.09,NNW,344,0.0,2.0,89,0.00,,,0.00,0.00,VWS V14.00,2013-06-05 07:13:00,
2013-06-05 03:18:00,46.0,43.0,30.09,NNW,344,1.0,2.0,89,0.00,,,0.00,0.00,VWS V14.00,2013-06-05 07:18:00,
2013-06-05 03:23:00,46.1,43.0,30.10,NNW,344,0.0,3.0,89,0.00,,,0.00,0.00,VWS V14.00,2013-06-05 07:23:00,
2013-06-05 03:28:00,46.1,43.0,30.10,NNW,344,2.0,3.0,89,0.00,,,0.00,0.00,VWS V14.00,2013-06-05 07:28:00,
2013-06-05 03:33:00,46.1,43.0,30.10,NNW,344,2.0,2.0,89,0.00,,,0.00,0.00,VWS V14.00,2013-06-05 07:33:00,
2013-06-05 03:38:00,46.0,43.0,30.10,NNW,344,1.0,3.0,89,0.00,,,0.00,0.00,VWS V14.00,2013-06-05 07:38:00,
2013-06-05 03:43:00,45.9,42.8,30.10,NNW,344,2.0,3.0,89,0.00,,,0.00,0.00,VWS V14.00,2013-06-05 07:43:00,
2013-06-05 03:48:00,45.8,42.8,30.10,NNW,344,2.0,3.0,89,0.00,,,0.00,0.00,VWS V14.00,2013-06-05 07:48:00,
2013-06-05 03:53:00,45.7,42.7,30.10,NNW,344,1.0,4.0,89,0.00,,,0.00,0.00,VWS V14.00,2013-06-05 07:53:00,
2013-06-05 03:58:00,45.6,42.5,30.10,NNW,344,0.0,4.0,89,0.00,,,0.00,0.00,VWS V14.00,2013-06-05 07:58:00,
2013-06-05 04:03:00,45.6,42.5,30.11,NNW,342,3.0,9.0,89,0.00,,,0.00,0.00,VWS V14.00,2013-06-05 08:03:00,
2013-06-05 04:08:00,45.6,42.5,30.11,North,360,3.0,4.0,89,0.00,,,0.00,0.00,VWS V14.00,2013-06-05 08:08:00,
2013-06-05 04:13:00,45.5,42.5,30.11,North,355,0.0,2.0,89,0.00,,,0.00,0.00,VWS V14.00,2013-06-05 08:13:00,
2013-06-05 04:18:00,45.5,42.5,30.11,North,355,0.0,0.0,89,0.00,,,0.00,0.00,VWS V14.00,2013-06-05 08:18:00,
2013-06-05 04:23:00,45.5,42.2,30.11,North,355,0.0,3.0,88,0.00,,,0.00,0.00,VWS V14.00,2013-06-05 08:23:00,
2013-06-05 04:28:00,45.3,42.0,30.11,North,355,0.0,2.0,88,0.00,,,0.00,0.00,VWS V14.00,2013-06-05 08:28:00,
2013-06-05 04:33:00,45.2,41.9,30.11,North,355,0.0,2.0,88,0.00,,,0.00,0.00,VWS V14.00,2013-06-05 08:33:00,
2013-06-05 04:38:00,45.1,41.8,30.11,North,355,3.0,3.0,88,0.00,,,0.00,0.00,VWS V14.00,2013-06-05 08:38:00,
2013-06-05 04:43:00,45.0,41.7,30.11,North,355,0.0,1.0,88,0.00,,,0.00,0.00,VWS V14.00,2013-06-05 08:43:00,
2013-06-05 04:48:00,44.9,41.6,30.12,North,355,0.0,0.0,88,0.00,,,0.00,0.00,VWS V14.00,2013-06-05 08:48:00,
2013-06-05 04:53:00,44.9,41.6,30.12,North,355,0.0,0.0,88,0.00,,,0.00,0.00,VWS V14.00,2013-06-05 08:53:00,
2013-06-05 04:58:00,44.8,41.5,30.12,North,355,0.0,0.0,88,0.00,,,0.00,0.00,VWS V14.00,2013-06-05 08:58:00,
2013-06-05 05:03:00,44.7,41.4,30.12,North,355,0.0,0.0,88,0.00,,,0.00,0.00,VWS V14.00,2013-06-05 09:03:00,
2013-06-05 05:08:00,44.7,41.4,30.12,North,355,0.0,0.0,88,0.00,,,0.00,0.00,VWS V14.00,2013-06-05 09:08:00,
2013-06-05 05:13:00,44.6,41.3,30.12,North,355,0.0,2.0,88,0.00,,,0.00,5.00,VWS V14.00,2013-06-05 09:13:00,
2013-06-05 05:18:00,44.5,41.2,30.13,North,355,0.0,3.0,88,0.00,,,0.00,7.00,VWS V14.00,2013-06-05 09:18:00,
2013-06-05 05:23:00,44.4,41.1,30.13,North,355,0.0,0.0,88,0.00,,,0.00,9.00,VWS V14.00,2013-06-05 09:23:00,
2013-06-05 05:28:00,44.3,41.0,30.13,North,355,0.0,1.0,88,0.00,,,0.00,12.00,VWS V14.00,2013-06-05 09:28:00,
2013-06-05 05:33:00,44.2,40.9,30.13,North,355,0.0,2.0,88,0.00,,,0.00,14.00,VWS V14.00,2013-06-05 09:33:00,
2013-06-05 05:38:00,44.1,40.8,30.13,North,355,0.0,1.0,88,0.00,,,0.00,18.00,VWS V14.00,2013-06-05 09:38:00,
2013-06-05 05:43:00,44.1,40.8,30.13,North,355,2.0,3.0,88,0.00,,,0.00,21.00,VWS V14.00,2013-06-05 09:43:00,
2013-06-05 05:48:00,44.0,40.7,30.13,North,350,3.0,4.0,88,0.00,,,0.00,25.00,VWS V14.00,2013-06-05 09:48:00,
2013-06-05 05:53:00,44.1,41.1,30.13,North,350,3.0,3.0,89,0.00,,,0.00,23.00,VWS V14.00,2013-06-05 09:53:00,
2013-06-05 05:59:00,44.2,41.2,30.13,North,350,0.0,3.0,89,0.00,,,0.00,25.00,VWS V14.00,2013-06-05 09:59:00,
2013-06-05 06:04:00,44.4,41.4,30.14,North,350,0.0,3.0,89,0.00,,,0.00,25.00,VWS V14.00,2013-06-05 10:04:00,
2013-06-05 06:09:00,44.6,41.6,30.14,North,350,0.0,1.0,89,0.00,,,0.00,26.00,VWS V14.00,2013-06-05 10:09:00,
2013-06-05 06:14:00,44.8,41.8,30.14,North,350,0.0,1.0,89,0.00,,,0.00,28.00,VWS V14.00,2013-06-05 10:14:00,
2013-06-05 06:19:00,45.1,42.1,30.15,North,350,0.0,0.0,89,0.00,,,0.00,30.00,VWS V14.00,2013-06-05 10:19:00,
2013-06-05 06:24:00,45.4,42.6,30.14,North,350,0.0,0.0,90,0.00,,,0.00,30.00,VWS V14.00,2013-06-05 10:24:00,
2013-06-05 06:29:00,45.7,42.7,30.15,North,350,1.0,1.0,89,0.00,,,0.00,30.00,VWS V14.00,2013-06-05 10:29:00,
2013-06-05 06:34:00,46.0,43.2,30.15,North,350,0.0,1.0,90,0.00,,,0.00,32.00,VWS V14.00,2013-06-05 10:34:00,
2013-06-05 06:39:00,46.5,43.7,30.15,North,350,0.0,3.0,90,0.00,,,0.00,33.00,VWS V14.00,2013-06-05 10:39:00,
2013-06-05 06:44:00,46.9,44.1,30.15,North,350,0.0,2.0,90,0.00,,,0.00,33.00,VWS V14.00,2013-06-05 10:44:00,
2013-06-05 06:49:00,47.3,44.2,30.15,North,350,0.0,1.0,89,0.00,,,0.00,35.00,VWS V14.00,2013-06-05 10:49:00,
2013-06-05 06:54:00,47.6,44.2,30.15,North,355,0.0,5.0,88,0.00,,,0.00,37.00,VWS V14.00,2013-06-05 10:54:00,
2013-06-05 06:59:00,48.1,44.4,30.15,North,355,0.0,2.0,87,0.00,,,0.00,39.00,VWS V14.00,2013-06-05 10:59:00,
2013-06-05 07:04:00,48.6,44.6,30.15,North,355,2.0,2.0,86,0.00,,,0.00,37.00,VWS V14.00,2013-06-05 11:04:00,
2013-06-05 07:09:00,49.2,44.3,30.15,NE,44,5.0,5.0,83,0.00,,,0.00,39.00,VWS V14.00,2013-06-05 11:09:00,
2013-06-05 07:14:00,50.0,44.7,30.16,North,5,1.0,4.0,82,0.00,,,0.00,39.00,VWS V14.00,2013-06-05 11:14:00,
2013-06-05 07:19:00,50.7,44.8,30.16,NNE,27,1.0,3.0,80,0.00,,,0.00,40.00,VWS V14.00,2013-06-05 11:19:00,
2013-06-05 07:24:00,51.3,44.7,30.16,ENE,71,1.0,4.0,78,0.00,,,0.00,40.00,VWS V14.00,2013-06-05 11:24:00,
2013-06-05 07:29:00,52.0,44.7,30.16,NE,52,2.0,5.0,76,0.00,,,0.00,47.00,VWS V14.00,2013-06-05 11:29:00,
2013-06-05 07:34:00,52.6,44.2,30.16,NE,56,0.0,4.0,73,0.00,,,0.00,58.00,VWS V14.00,2013-06-05 11:34:00,
2013-06-05 07:39:00,53.0,44.2,30.16,North,5,2.0,4.0,72,0.00,,,0.00,105.00,VWS V14.00,2013-06-05 11:39:00,
2013-06-05 07:44:00,53.4,44.2,30.16,NE,43,2.0,5.0,71,0.00,,,0.00,179.00,VWS V14.00,2013-06-05 11:44:00,
2013-06-05 07:49:00,53.7,43.8,30.16,NE,44,0.0,4.0,69,0.00,,,0.00,77.00,VWS V14.00,2013-06-05 11:49:00,
2013-06-05 07:54:00,54.1,44.9,30.16,ENE,74,1.0,2.0,71,0.00,,,0.00,160.00,VWS V14.00,2013-06-05 11:54:00,
2013-06-05 07:59:00,54.4,45.6,30.16,ESE,115,0.0,3.0,72,0.00,,,0.00,338.00,VWS V14.00,2013-06-05 11:59:00,
2013-06-05 08:05:00,54.7,46.2,30.16,ESE,119,1.0,1.0,73,0.00,,,0.00,445.00,VWS V14.00,2013-06-05 12:05:00,
2013-06-05 08:10:00,54.9,46.1,30.16,ESE,114,0.0,3.0,72,0.00,,,0.00,462.00,VWS V14.00,2013-06-05 12:10:00,
2013-06-05 08:15:00,55.5,47.4,30.16,SSE,157,1.0,4.0,74,0.00,,,0.00,476.00,VWS V14.00,2013-06-05 12:15:00,
2013-06-05 08:20:00,56.1,47.9,30.16,SSE,165,0.0,3.0,74,0.00,,,0.00,492.00,VWS V14.00,2013-06-05 12:20:00,
2013-06-05 08:25:00,56.5,48.0,30.16,SE,133,1.0,3.0,73,0.00,,,0.00,508.00,VWS V14.00,2013-06-05 12:25:00,
2013-06-05 08:30:00,56.8,47.9,30.16,SSE,158,2.0,5.0,72,0.00,,,0.00,524.00,VWS V14.00,2013-06-05 12:30:00,
2013-06-05 08:35:00,57.1,48.2,30.17,SSE,160,0.0,5.0,72,0.00,,,0.00,538.00,VWS V14.00,2013-06-05 12:35:00,
2013-06-05 08:40:00,57.4,47.7,30.17,SSE,162,3.0,4.0,70,0.00,,,0.00,555.00,VWS V14.00,2013-06-05 12:40:00,
2013-06-05 08:45:00,57.7,47.6,30.17,SSE,150,0.0,6.0,69,0.00,,,0.00,570.00,VWS V14.00,2013-06-05 12:45:00,
2013-06-05 08:50:00,58.1,47.6,30.17,SSE,162,0.0,4.0,68,0.00,,,0.00,580.00,VWS V14.00,2013-06-05 12:50:00,
2013-06-05 08:55:00,58.4,46.7,30.17,ESE,115,0.0,3.0,65,0.00,,,0.00,596.00,VWS V14.00,2013-06-05 12:55:00,
2013-06-05 09:00:00,58.8,46.7,30.17,ESE,114,3.0,5.0,64,0.00,,,0.00,613.00,VWS V14.00,2013-06-05 13:00:00,
2013-06-05 09:05:00,59.2,46.6,30.17,SSE,160,1.0,4.0,63,0.00,,,0.00,626.00,VWS V14.00,2013-06-05 13:05:00,
2013-06-05 09:10:00,59.6,47.4,30.17,South,175,0.0,5.0,64,0.00,,,0.00,640.00,VWS V14.00,2013-06-05 13:10:00,
2013-06-05 09:15:00,59.9,47.3,30.17,SSE,167,2.0,4.0,63,0.00,,,0.00,654.00,VWS V14.00,2013-06-05 13:15:00,
2013-06-05 09:20:00,60.1,47.0,30.17,SSE,160,2.0,4.0,62,0.00,,,0.00,670.00,VWS V14.00,2013-06-05 13:20:00,
2013-06-05 09:25:00,60.3,46.4,30.17,East,88,0.0,5.0,60,0.00,,,0.00,686.00,VWS V14.00,2013-06-05 13:25:00,
2013-06-05 09:30:00,60.5,47.0,30.17,SSE,154,3.0,6.0,61,0.00,,,0.00,698.00,VWS V14.00,2013-06-05 13:30:00,
2013-06-05 09:35:00,60.7,47.2,30.17,SSE,161,2.0,5.0,61,0.00,,,0.00,708.00,VWS V14.00,2013-06-05 13:35:00,
2013-06-05 09:40:00,60.7,46.8,30.17,SSE,153,9.0,9.0,60,0.00,,,0.00,721.00,VWS V14.00,2013-06-05 13:40:00,
2013-06-05 09:45:00,60.5,45.7,30.16,South,171,3.0,6.0,58,0.00,,,0.00,735.00,VWS V14.00,2013-06-05 13:45:00,
2013-06-05 09:50:00,60.5,46.1,30.16,SSE,148,0.0,7.0,59,0.00,,,0.00,747.00,VWS V14.00,2013-06-05 13:50:00,
2013-06-05 09:55:00,60.6,44.8,30.16,SSE,153,0.0,5.0,56,0.00,,,0.00,761.00,VWS V14.00,2013-06-05 13:55:00,
2013-06-05 10:00:00,60.8,46.8,30.16,South,169,1.0,5.0,60,0.00,,,0.00,772.00,VWS V14.00,2013-06-05 14:00:00,
2013-06-05 10:05:00,61.1,47.1,30.16,SSE,159,0.0,3.0,60,0.00,,,0.00,786.00,VWS V14.00,2013-06-05 14:05:00,
2013-06-05 10:10:00,61.4,47.4,30.15,South,172,3.0,3.0,60,0.00,,,0.00,795.00,VWS V14.00,2013-06-05 14:10:00,
2013-06-05 10:15:00,61.7,46.3,30.16,SE,145,0.0,3.0,57,0.00,,,0.00,805.00,VWS V14.00,2013-06-05 14:15:00,
2013-06-05 10:20:00,61.8,46.0,30.16,SSE,155,0.0,4.0,56,0.00,,,0.00,819.00,VWS V14.00,2013-06-05 14:20:00,
2013-06-05 10:25:00,61.8,47.3,30.15,SSE,159,0.0,6.0,59,0.00,,,0.00,828.00,VWS V14.00,2013-06-05 14:25:00,
2013-06-05 10:30:00,62.0,47.1,30.15,ESE,115,2.0,5.0,58,0.00,,,0.00,838.00,VWS V14.00,2013-06-05 14:30:00,
2013-06-05 10:35:00,62.1,46.7,30.15,SSE,157,2.0,7.0,57,0.00,,,0.00,849.00,VWS V14.00,2013-06-05 14:35:00,
2013-06-05 10:40:00,62.2,48.2,30.16,SSE,157,3.0,5.0,60,0.00,,,0.00,858.00,VWS V14.00,2013-06-05 14:40:00,
2013-06-05 10:45:00,62.3,46.9,30.16,SSE,158,0.0,3.0,57,0.00,,,0.00,867.00,VWS V14.00,2013-06-05 14:45:00,
2013-06-05 10:50:00,62.3,47.3,30.16,SSE,167,1.0,4.0,58,0.00,,,0.00,874.00,VWS V14.00,2013-06-05 14:50:00,
2013-06-05 10:55:00,62.5,48.0,30.16,SSE,159,1.0,5.0,59,0.00,,,0.00,882.00,VWS V14.00,2013-06-05 14:55:00,
2013-06-05 11:00:00,62.6,47.6,30.16,SE,130,0.0,5.0,58,0.00,,,0.00,891.00,VWS V14.00,2013-06-05 15:00:00,
2013-06-05 11:05:00,62.7,46.3,30.16,SE,126,0.0,2.0,55,0.00,,,0.00,900.00,VWS V14.00,2013-06-05 15:05:00,
2013-06-05 11:10:00,62.9,47.9,30.15,SSE,166,1.0,5.0,58,0.00,,,0.00,907.00,VWS V14.00,2013-06-05 15:10:00,
2013-06-05 11:15:00,63.2,49.1,30.15,SSE,161,2.0,7.0,60,0.00,,,0.00,916.00,VWS V14.00,2013-06-05 15:15:00,
2013-06-05 11:20:00,63.3,48.7,30.15,SSE,153,0.0,5.0,59,0.00,,,0.00,926.00,VWS V14.00,2013-06-05 15:20:00,
2013-06-05 11:25:00,63.4,48.8,30.15,South,173,3.0,5.0,59,0.00,,,0.00,930.00,VWS V14.00,2013-06-05 15:25:00,
2013-06-05 11:30:00,63.5,48.9,30.15,SSE,166,3.0,6.0,59,0.00,,,0.00,935.00,VWS V14.00,2013-06-05 15:30:00,
2013-06-05 11:35:00,63.6,49.5,30.15,SSE,153,1.0,6.0,60,0.00,,,0.00,944.00,VWS V14.00,2013-06-05 15:35:00,
2013-06-05 11:40:00,63.6,49.5,30.15,SSE,159,0.0,7.0,60,0.00,,,0.00,949.00,VWS V14.00,2013-06-05 15:40:00,
2013-06-05 11:45:00,63.5,47.5,30.15,SSE,157,0.0,8.0,56,0.00,,,0.00,954.00,VWS V14.00,2013-06-05 15:45:00,
2013-06-05 11:50:00,63.7,48.7,30.15,ESE,106,0.0,8.0,58,0.00,,,0.00,960.00,VWS V14.00,2013-06-05 15:50:00,
2013-06-05 11:55:00,63.9,49.3,30.15,South,185,0.0,6.0,59,0.00,,,0.00,969.00,VWS V14.00,2013-06-05 15:55:00,
2013-06-05 12:00:00,64.0,48.9,30.15,South,169,1.0,4.0,58,0.00,,,0.00,970.00,VWS V14.00,2013-06-05 16:00:00,
2013-06-05 12:05:00,64.0,48.0,30.15,SSE,161,4.0,4.0,56,0.00,,,0.00,974.00,VWS V14.00,2013-06-05 16:05:00,
2013-06-05 12:10:00,64.0,48.5,30.15,SSE,159,2.0,7.0,57,0.00,,,0.00,977.00,VWS V14.00,2013-06-05 16:10:00,
2013-06-05 12:15:00,64.1,48.6,30.14,SSE,161,0.0,7.0,57,0.00,,,0.00,979.00,VWS V14.00,2013-06-05 16:15:00,
2013-06-05 12:20:00,64.3,49.2,30.14,SSE,168,3.0,5.0,58,0.00,,,0.00,981.00,VWS V14.00,2013-06-05 16:20:00,
2013-06-05 12:25:00,64.5,49.4,30.14,NE,54,0.0,4.0,58,0.00,,,0.00,983.00,VWS V14.00,2013-06-05 16:25:00,
2013-06-05 12:30:00,64.8,49.7,30.14,SE,145,1.0,9.0,58,0.00,,,0.00,984.00,VWS V14.00,2013-06-05 16:30:00,
2013-06-05 12:35:00,65.0,50.3,30.14,South,178,4.0,7.0,59,0.00,,,0.00,984.00,VWS V14.00,2013-06-05 16:35:00,
2013-06-05 12:40:00,65.2,48.2,30.14,ESE,105,0.0,7.0,54,0.00,,,0.00,988.00,VWS V14.00,2013-06-05 16:40:00,
2013-06-05 12:46:00,65.9,51.2,30.14,South,178,5.0,6.0,59,0.00,,,0.00,986.00,VWS V14.00,2013-06-05 16:46:00,
2013-06-05 12:51:00,66.4,49.8,30.14,SSW,204,0.0,10.0,55,0.00,,,0.00,986.00,VWS V14.00,2013-06-05 16:51:00,
2013-06-05 12:56:00,66.4,50.7,30.14,SSE,157,2.0,6.0,57,0.00,,,0.00,986.00,VWS V14.00,2013-06-05 16:56:00,
2013-06-05 13:01:00,66.4,51.7,30.13,SSW,209,2.0,5.0,59,0.00,,,0.00,990.00,VWS V14.00,2013-06-05 17:01:00,
2013-06-05 13:06:00,66.6,51.8,30.14,WSW,255,0.0,6.0,59,0.00,,,0.00,991.00,VWS V14.00,2013-06-05 17:06:00,
2013-06-05 13:11:00,66.4,49.8,30.13,SSE,154,4.0,8.0,55,0.00,,,0.00,990.00,VWS V14.00,2013-06-05 17:11:00,
2013-06-05 13:16:00,66.3,52.0,30.13,SE,130,3.0,5.0,60,0.00,,,0.00,986.00,VWS V14.00,2013-06-05 17:16:00,
2013-06-05 13:21:00,66.2,50.1,30.13,ESE,109,7.0,9.0,56,0.00,,,0.00,988.00,VWS V14.00,2013-06-05 17:21:00,
2013-06-05 13:26:00,66.1,50.0,30.13,ESE,105,3.0,8.0,56,0.00,,,0.00,986.00,VWS V14.00,2013-06-05 17:26:00,
2013-06-05 13:31:00,66.1,50.0,30.13,South,176,0.0,6.0,56,0.00,,,0.00,993.00,VWS V14.00,2013-06-05 17:31:00,
2013-06-05 13:36:00,66.4,50.2,30.13,East,79,2.0,3.0,56,0.00,,,0.00,1009.00,VWS V14.00,2013-06-05 17:36:00,
2013-06-05 13:41:00,66.5,50.3,30.13,ESE,123,0.0,0.0,56,0.00,,,0.00,998.00,VWS V14.00,2013-06-05 17:41:00,
2013-06-05 13:46:00,66.6,50.0,30.12,ESE,121,1.0,9.0,55,0.00,,,0.00,979.00,VWS V14.00,2013-06-05 17:46:00,
2013-06-05 13:51:00,66.8,50.6,30.12,SE,126,0.0,0.0,56,0.00,,,0.00,967.00,VWS V14.00,2013-06-05 17:51:00,
2013-06-05 13:56:00,66.9,50.7,30.11,ENE,74,5.0,7.0,56,0.00,,,0.00,962.00,VWS V14.00,2013-06-05 17:56:00,
2013-06-05 14:01:00,66.9,51.2,30.11,SE,126,3.0,4.0,57,0.00,,,0.00,960.00,VWS V14.00,2013-06-05 18:01:00,
2013-06-05 14:06:00,67.2,52.9,30.12,SSE,167,1.0,2.0,60,0.00,,,0.00,963.00,VWS V14.00,2013-06-05 18:06:00,
2013-06-05 14:11:00,67.6,50.9,30.12,SE,128,4.0,4.0,55,0.00,,,0.00,953.00,VWS V14.00,2013-06-05 18:11:00,
2013-06-05 14:16:00,67.5,51.3,30.12,SE,129,1.0,1.0,56,0.00,,,0.00,990.00,VWS V14.00,2013-06-05 18:16:00,
2013-06-05 14:21:00,67.4,49.7,30.12,ESE,116,0.0,0.0,53,0.00,,,0.00,1048.00,VWS V14.00,2013-06-05 18:21:00,
2013-06-05 14:26:00,67.1,50.4,30.12,ESE,109,2.0,4.0,55,0.00,,,0.00,1048.00,VWS V14.00,2013-06-05 18:26:00,
2013-06-05 14:31:00,67.2,52.9,30.11,SSE,153,0.0,1.0,60,0.00,,,0.00,937.00,VWS V14.00,2013-06-05 18:31:00,
2013-06-05 14:36:00,67.8,53.9,30.11,SSE,167,1.0,2.0,61,0.00,,,0.00,972.00,VWS V14.00,2013-06-05 18:36:00,
2013-06-05 14:41:00,68.2,52.4,30.11,SE,146,1.0,6.0,57,0.00,,,0.00,1099.00,VWS V14.00,2013-06-05 18:41:00,
2013-06-05 14:46:00,68.3,51.5,30.11,SSE,157,2.0,6.0,55,0.00,,,0.00,1039.00,VWS V14.00,2013-06-05 18:46:00,
2013-06-05 14:51:00,67.7,50.0,30.10,South,170,0.0,2.0,53,0.00,,,0.00,313.00,VWS V14.00,2013-06-05 18:51:00,
2013-06-05 14:56:00,67.3,51.1,30.10,SSE,159,5.0,5.0,56,0.00,,,0.00,345.00,VWS V14.00,2013-06-05 18:56:00,
2013-06-05 15:02:00,66.8,49.6,30.11,SSE,164,1.0,2.0,54,0.00,,,0.00,278.00,VWS V14.00,2013-06-05 19:02:00,
2013-06-05 15:07:00,66.2,49.1,30.10,SSE,165,1.0,3.0,54,0.00,,,0.00,285.00,VWS V14.00,2013-06-05 19:07:00,
2013-06-05 15:12:00,65.8,49.7,30.10,SSE,165,0.0,2.0,56,0.00,,,0.00,248.00,VWS V14.00,2013-06-05 19:12:00,
2013-06-05 15:17:00,65.5,49.9,30.10,SSE,165,0.0,3.0,57,0.00,,,0.00,209.00,VWS V14.00,2013-06-05 19:17:00,
2013-06-05 15:22:00,65.2,49.6,30.10,SSE,165,1.0,2.0,57,0.00,,,0.00,192.00,VWS V14.00,2013-06-05 19:22:00,
2013-06-05 15:27:00,64.9,49.3,30.10,SE,128,3.0,3.0,57,0.00,,,0.00,209.00,VWS V14.00,2013-06-05 19:27:00,
2013-06-05 15:32:00,64.7,48.7,30.10,SE,124,1.0,1.0,56,0.00,,,0.00,213.00,VWS V14.00,2013-06-05 19:32:00,
2013-06-05 15:37:00,64.5,49.4,30.09,SE,124,0.0,2.0,58,0.00,,,0.00,195.00,VWS V14.00,2013-06-05 19:37:00,
2013-06-05 15:42:00,64.4,49.8,30.09,SE,124,3.0,3.0,59,0.00,,,0.00,176.00,VWS V14.00,2013-06-05 19:42:00,
2013-06-05 15:47:00,64.3,49.2,30.09,SE,124,0.0,1.0,58,0.00,,,0.00,171.00,VWS V14.00,2013-06-05 19:47:00,
2013-06-05 15:52:00,64.2,48.7,30.08,SE,124,0.0,1.0,57,0.00,,,0.00,185.00,VWS V14.00,2013-06-05 19:52:00,
2013-06-05 15:57:00,64.1,48.6,30.08,SE,124,0.0,0.0,57,0.00,,,0.00,186.00,VWS V14.00,2013-06-05 19:57:00,
2013-06-05 16:02:00,64.2,49.6,30.08,SE,124,0.0,0.0,59,0.00,,,0.00,176.00,VWS V14.00,2013-06-05 20:02:00,
2013-06-05 16:07:00,64.2,48.2,30.08,SE,124,3.0,3.0,56,0.00,,,0.00,181.00,VWS V14.00,2013-06-05 20:07:00,
2013-06-05 16:12:00,64.1,47.6,30.07,NE,51,0.0,1.0,55,0.00,,,0.00,172.00,VWS V14.00,2013-06-05 20:12:00,
2013-06-05 16:17:00,63.9,46.5,30.07,ENE,68,0.0,4.0,53,0.00,,,0.00,172.00,VWS V14.00,2013-06-05 20:17:00,
2013-06-05 16:22:00,63.8,46.8,30.07,ENE,68,0.0,1.0,54,0.00,,,0.00,160.00,VWS V14.00,2013-06-05 20:22:00,
2013-06-05 16:27:00,63.6,45.7,30.07,ENE,68,0.0,1.0,52,0.00,,,0.00,158.00,VWS V14.00,2013-06-05 20:27:00,
2013-06-05 16:32:00,63.4,45.5,30.07,NE,49,4.0,5.0,52,0.00,,,0.00,160.00,VWS V14.00,2013-06-05 20:32:00,
2013-06-05 16:37:00,63.3,45.4,30.07,East,91,2.0,3.0,52,0.00,,,0.00,149.00,VWS V14.00,2013-06-05 20:37:00,
2013-06-05 16:42:00,63.2,46.3,30.07,East,89,1.0,1.0,54,0.00,,,0.00,162.00,VWS V14.00,2013-06-05 20:42:00,
2013-06-05 16:47:00,63.2,45.3,30.08,East,88,0.0,0.0,52,0.00,,,0.00,176.00,VWS V14.00,2013-06-05 20:47:00,
2013-06-05 16:52:00,63.2,46.3,30.08,East,88,1.0,1.0,54,0.00,,,0.00,204.00,VWS V14.00,2013-06-05 20:52:00,
2013-06-05 16:57:00,63.3,45.4,30.08,East,88,0.0,1.0,52,0.00,,,0.00,230.00,VWS V14.00,2013-06-05 20:57:00,
2013-06-05 17:02:00,63.4,45.0,30.08,East,88,2.0,2.0,51,0.00,,,0.00,227.00,VWS V14.00,2013-06-05 21:02:00,
2013-06-05 17:07:00,63.4,45.5,30.08,East,88,0.0,1.0,52,0.00,,,0.00,195.00,VWS V14.00,2013-06-05 21:07:00,
2013-06-05 17:12:00,63.5,45.6,30.08,East,87,0.0,3.0,52,0.00,,,0.00,221.00,VWS V14.00,2013-06-05 21:12:00,
2013-06-05 17:17:00,63.6,45.7,30.08,East,87,0.0,1.0,52,0.00,,,0.00,188.00,VWS V14.00,2013-06-05 21:17:00,
2013-06-05 17:22:00,63.8,46.4,30.08,East,87,0.0,1.0,53,0.00,,,0.00,239.00,VWS V14.00,2013-06-05 21:22:00,
2013-06-05 17:27:00,63.9,46.0,30.08,East,87,0.0,1.0,52,0.00,,,0.00,220.00,VWS V14.00,2013-06-05 21:27:00,
2013-06-05 17:32:00,63.9,46.5,30.08,East,86,0.0,2.0,53,0.00,,,0.00,281.00,VWS V14.00,2013-06-05 21:32:00,
2013-06-05 17:38:00,64.0,46.5,30.08,East,86,0.0,2.0,53,0.00,,,0.00,230.00,VWS V14.00,2013-06-05 21:38:00,
2013-06-05 17:42:00,64.1,45.6,30.08,East,86,0.0,1.0,51,0.00,,,0.00,202.00,VWS V14.00,2013-06-05 21:42:00,
2013-06-05 17:48:00,64.1,45.6,30.08,East,86,0.0,1.0,51,0.00,,,0.00,202.00,VWS V14.00,2013-06-05 21:48:00,
2013-06-05 17:53:00,64.1,45.6,30.09,East,86,2.0,2.0,51,0.00,,,0.00,197.00,VWS V14.00,2013-06-05 21:53:00,
2013-06-05 17:58:00,64.1,44.6,30.09,East,85,0.0,3.0,49,0.00,,,0.00,153.00,VWS V14.00,2013-06-05 21:58:00,
2013-06-05 18:03:00,64.1,45.6,30.09,East,85,0.0,2.0,51,0.00,,,0.00,125.00,VWS V14.00,2013-06-05 22:03:00,
2013-06-05 18:08:00,64.0,44.5,30.09,East,84,0.0,1.0,49,0.00,,,0.00,125.00,VWS V14.00,2013-06-05 22:08:00,
2013-06-05 18:13:00,63.9,44.9,30.09,ENE,65,2.0,4.0,50,0.00,,,0.00,132.00,VWS V14.00,2013-06-05 22:13:00,
2013-06-05 18:18:00,63.7,44.2,30.09,NE,46,3.0,7.0,49,0.00,,,0.00,144.00,VWS V14.00,2013-06-05 22:18:00,
2013-06-05 18:23:00,63.5,44.5,30.09,NE,47,2.0,4.0,50,0.00,,,0.00,144.00,VWS V14.00,2013-06-05 22:23:00,
2013-06-05 18:28:00,63.3,45.4,30.09,NE,50,0.0,1.0,52,0.00,,,0.00,160.00,VWS V14.00,2013-06-05 22:28:00,
2013-06-05 18:33:00,63.2,44.3,30.09,NE,46,0.0,4.0,50,0.00,,,0.00,156.00,VWS V14.00,2013-06-05 22:33:00,
2013-06-05 18:38:00,63.1,44.2,30.10,NNE,24,1.0,6.0,50,0.00,,,0.00,142.00,VWS V14.00,2013-06-05 22:38:00,
2013-06-05 18:43:00,63.0,45.1,30.09,NE,43,1.0,5.0,52,0.00,,,0.00,178.00,VWS V14.00,2013-06-05 22:43:00,
2013-06-05 18:48:00,62.9,46.0,30.10,NE,41,0.0,1.0,54,0.00,,,0.00,132.00,VWS V14.00,2013-06-05 22:48:00,
2013-06-05 18:53:00,62.9,45.5,30.10,NE,41,0.0,3.0,53,0.00,,,0.00,111.00,VWS V14.00,2013-06-05 22:53:00,
2013-06-05 18:58:00,62.7,45.3,30.10,NE,51,0.0,4.0,53,0.00,,,0.00,135.00,VWS V14.00,2013-06-05 22:58:00,
2013-06-05 19:03:00,62.5,45.2,30.09,NNE,22,2.0,5.0,53,0.00,,,0.00,174.00,VWS V14.00,2013-06-05 23:03:00,
2013-06-05 19:08:00,62.4,45.1,30.09,NE,42,2.0,2.0,53,0.00,,,0.00,204.00,VWS V14.00,2013-06-05 23:08:00,
2013-06-05 19:13:00,62.3,44.5,30.09,NE,42,1.0,7.0,52,0.00,,,0.00,214.00,VWS V14.00,2013-06-05 23:13:00,
2013-06-05 19:18:00,62.3,44.5,30.09,NE,55,0.0,8.0,52,0.00,,,0.00,209.00,VWS V14.00,2013-06-05 23:18:00,
2013-06-05 19:23:00,62.2,43.9,30.09,East,95,5.0,9.0,51,0.00,,,0.00,163.00,VWS V14.00,2013-06-05 23:23:00,
2013-06-05 19:28:00,62.1,43.8,30.09,NNE,13,3.0,7.0,51,0.00,,,0.00,132.00,VWS V14.00,2013-06-05 23:28:00,
2013-06-05 19:33:00,61.9,43.6,30.10,NNE,13,6.0,6.0,51,0.00,,,0.00,109.00,VWS V14.00,2013-06-05 23:33:00,
2013-06-05 19:38:00,61.7,43.4,30.10,NNW,347,5.0,7.0,51,0.00,,,0.00,63.00,VWS V14.00,2013-06-05 23:38:00,
2013-06-05 19:43:00,61.5,43.2,30.10,NNW,338,5.0,5.0,51,0.00,,,0.00,47.00,VWS V14.00,2013-06-05 23:43:00,
2013-06-05 19:48:00,61.2,43.5,30.10,NNW,335,3.0,4.0,52,0.00,,,0.00,37.00,VWS V14.00,2013-06-05 23:48:00,
2013-06-05 19:53:00,60.9,43.7,30.09,North,5,2.0,4.0,53,0.00,,,0.00,30.00,VWS V14.00,2013-06-05 23:53:00,
2013-06-05 19:58:00,60.7,43.5,30.10,North,355,0.0,3.0,53,0.00,,,0.00,23.00,VWS V14.00,2013-06-05 23:58:00,
2013-06-05 20:03:00,60.4,43.7,30.10,NNE,24,1.0,4.0,54,0.00,,,0.00,18.00,VWS V14.00,2013-06-06 00:03:00,
2013-06-05 20:08:00,60.1,43.4,30.10,NW,323,7.0,7.0,54,0.00,,,0.00,16.00,VWS V14.00,2013-06-06 00:08:00,
2013-06-05 20:13:00,59.8,43.6,30.10,North,355,1.0,5.0,55,0.00,,,0.00,11.00,VWS V14.00,2013-06-06 00:13:00,
2013-06-05 20:18:00,59.6,43.9,30.10,North,11,0.0,3.0,56,0.00,,,0.00,7.00,VWS V14.00,2013-06-06 00:18:00,
2013-06-05 20:23:00,59.3,43.6,30.10,NNW,341,0.0,6.0,56,0.00,,,0.00,5.00,VWS V14.00,2013-06-06 00:23:00,
2013-06-05 20:28:00,59.1,43.4,30.10,NNW,334,5.0,5.0,56,0.00,,,0.00,0.00,VWS V14.00,2013-06-06 00:28:00,
2013-06-05 20:33:00,58.9,43.7,30.11,NNW,331,5.0,5.0,57,0.00,,,0.00,0.00,VWS V14.00,2013-06-06 00:33:00,
2013-06-05 20:38:00,58.8,43.6,30.11,NNW,328,1.0,4.0,57,0.00,,,0.00,0.00,VWS V14.00,2013-06-06 00:38:00,
2013-06-05 20:43:00,58.7,44.0,30.11,NW,311,0.0,4.0,58,0.00,,,0.00,0.00,VWS V14.00,2013-06-06 00:43:00,
2013-06-05 20:48:00,58.6,44.3,30.11,NNW,330,0.0,4.0,59,0.00,,,0.00,0.00,VWS V14.00,2013-06-06 00:48:00,
2013-06-05 20:54:00,58.5,44.2,30.11,NNW,330,0.0,1.0,59,0.00,,,0.00,0.00,VWS V14.00,2013-06-06 00:54:00,
2013-06-05 20:59:00,58.4,45.5,30.11,NNW,330,0.0,1.0,62,0.00,,,0.00,0.00,VWS V14.00,2013-06-06 00:59:00,
2013-06-05 21:04:00,58.3,46.2,30.12,NNW,330,0.0,0.0,64,0.00,,,0.00,0.00,VWS V14.00,2013-06-06 01:04:00,
2013-06-05 21:09:00,58.2,46.1,30.11,NNW,330,0.0,1.0,64,0.00,,,0.00,0.00,VWS V14.00,2013-06-06 01:09:00,
2013-06-05 21:14:00,58.0,45.9,30.11,NNW,330,0.0,0.0,64,0.00,,,0.00,0.00,VWS V14.00,2013-06-06 01:14:00,
2013-06-05 21:19:00,57.8,46.1,30.12,NNW,330,0.0,0.0,65,0.00,,,0.00,0.00,VWS V14.00,2013-06-06 01:19:00,
2013-06-05 21:24:00,57.6,46.3,30.12,NNW,330,0.0,1.0,66,0.00,,,0.00,0.00,VWS V14.00,2013-06-06 01:24:00,
2013-06-05 21:29:00,57.4,46.2,30.11,NNW,330,0.0,0.0,66,0.00,,,0.00,0.00,VWS V14.00,2013-06-06 01:29:00,
2013-06-05 21:34:00,57.2,45.6,30.12,NNW,330,0.0,1.0,65,0.00,,,0.00,0.00,VWS V14.00,2013-06-06 01:34:00,
2013-06-05 21:39:00,57.0,45.8,30.12,NNW,330,1.0,2.0,66,0.00,,,0.00,0.00,VWS V14.00,2013-06-06 01:39:00,
2013-06-05 21:44:00,56.8,45.6,30.12,NNW,330,0.0,2.0,66,0.00,,,0.00,0.00,VWS V14.00,2013-06-06 01:44:00,
2013-06-05 21:49:00,56.6,45.4,30.12,NNW,330,0.0,3.0,66,0.00,,,0.00,0.00,VWS V14.00,2013-06-06 01:49:00,
2013-06-05 21:54:00,56.4,45.2,30.12,NNW,330,0.0,2.0,66,0.00,,,0.00,0.00,VWS V14.00,2013-06-06 01:54:00,
2013-06-05 21:59:00,56.2,44.6,30.12,NNW,330,0.0,3.0,65,0.00,,,0.00,0.00,VWS V14.00,2013-06-06 01:59:00,
2013-06-05 22:04:00,56.2,44.6,30.13,NNW,330,0.0,1.0,65,0.00,,,0.00,0.00,VWS V14.00,2013-06-06 02:04:00,
2013-06-05 22:09:00,56.1,44.9,30.13,NNW,330,0.0,0.0,66,0.00,,,0.00,0.00,VWS V14.00,2013-06-06 02:09:00,
2013-06-05 22:14:00,56.2,46.2,30.13,NNW,330,0.0,1.0,69,0.00,,,0.00,0.00,VWS V14.00,2013-06-06 02:14:00,
2013-06-05 22:19:00,56.2,46.6,30.13,NNW,330,0.0,1.0,70,0.00,,,0.00,0.00,VWS V14.00,2013-06-06 02:19:00,
2013-06-05 22:24:00,56.1,46.5,30.13,NNW,330,0.0,0.0,70,0.00,,,0.00,0.00,VWS V14.00,2013-06-06 02:24:00,
2013-06-05 22:29:00,55.9,46.3,30.13,NNW,330,0.0,0.0,70,0.00,,,0.00,0.00,VWS V14.00,2013-06-06 02:29:00,
2013-06-05 22:34:00,55.8,46.2,30.13,NNW,330,0.0,0.0,70,0.00,,,0.00,0.00,VWS V14.00,2013-06-06 02:34:00,
2013-06-05 22:39:00,55.6,45.2,30.13,NNW,330,1.0,1.0,68,0.00,,,0.00,0.00,VWS V14.00,2013-06-06 02:39:00,
2013-06-05 22:44:00,55.4,44.6,30.13,NNW,330,0.0,1.0,67,0.00,,,0.00,0.00,VWS V14.00,2013-06-06 02:44:00,
2013-06-05 22:49:00,55.4,44.6,30.13,NNW,330,0.0,0.0,67,0.00,,,0.00,0.00,VWS V14.00,2013-06-06 02:49:00,
2013-06-05 22:54:00,55.3,44.5,30.13,NNW,330,0.0,0.0,67,0.00,,,0.00,0.00,VWS V14.00,2013-06-06 02:54:00,
2013-06-05 22:59:00,55.3,44.9,30.12,NNW,330,0.0,0.0,68,0.00,,,0.00,0.00,VWS V14.00,2013-06-06 02:59:00,
2013-06-05 23:04:00,55.3,44.9,30.12,NNW,330,1.0,1.0,68,0.00,,,0.00,0.00,VWS V14.00,2013-06-06 03:04:00,
2013-06-05 23:09:00,55.3,44.9,30.12,NNW,330,0.0,1.0,68,0.00,,,0.00,0.00,VWS V14.00,2013-06-06 03:09:00,
2013-06-05 23:14:00,55.2,44.8,30.12,NNW,330,0.0,2.0,68,0.00,,,0.00,0.00,VWS V14.00,2013-06-06 03:14:00,
2013-06-05 23:19:00,55.2,44.8,30.13,NNW,330,0.0,1.0,68,0.00,,,0.00,0.00,VWS V14.00,2013-06-06 03:19:00,
2013-06-05 23:24:00,55.1,44.7,30.12,NNW,330,0.0,4.0,68,0.00,,,0.00,0.00,VWS V14.00,2013-06-06 03:24:00,
2013-06-05 23:29:00,55.1,44.7,30.12,NNW,330,0.0,1.0,68,0.00,,,0.00,0.00,VWS V14.00,2013-06-06 03:29:00,
2013-06-05 23:34:00,55.0,44.3,30.12,NNW,330,0.0,2.0,67,0.00,,,0.00,0.00,VWS V14.00,2013-06-06 03:34:00,
2013-06-05 23:39:00,55.0,44.7,30.12,NNW,330,0.0,1.0,68,0.00,,,0.00,0.00,VWS V14.00,2013-06-06 03:39:00,
2013-06-05 23:44:00,54.9,44.5,30.12,NNW,330,0.0,0.0,68,0.00,,,0.00,0.00,VWS V14.00,2013-06-06 03:44:00,
2013-06-05 23:49:00,54.9,44.9,30.11,NNW,330,0.0,1.0,69,0.00,,,0.00,0.00,VWS V14.00,2013-06-06 03:49:00,
2013-06-05 23:54:00,54.8,44.8,30.11,NNW,330,0.0,0.0,69,0.00,,,0.00,0.00,VWS V14.00,2013-06-06 03:54:00,
2013-06-05 23:59:00,54.8,45.2,30.11,NNW,330,0.0,2.0,70,0.00,,,0.00,0.00,VWS V14.00,2013-06-06 03:59:00,